DW2728 Weather Reports


Display with metric or nautical units.
time (UTC)temp
F
wind
direction
speed
MPH
gust
MPH
rain 1hr
in
rain 24hr
in
rain mn
in
humidity
%
barometer
mb
20260906201803 93 181 8.0 22.0 0.00 0.01 0.01 42 1005.9
20260906200803 93 173 10.0 27.0 0.00 0.01 0.01 43 1005.9
20260906195803 92 190 15.0 24.0 0.00 0.01 0.01 45 1005.9
20260906194803 92 174 11.0 19.0 0.00 0.01 0.01 45 1006.3
20260906193803 91 172 9.0 20.0 0.00 0.01 0.01 46 1006.5
20260906192803 91 174 9.0 20.0 0.00 0.01 0.01 49 1006.6
20260906191824 90 154 11.0 19.0 0.00 0.01 0.01 48 1006.7
20260906190803 90 156 12.0 20.0 0.00 0.01 0.01 49 1006.8
20260906185803 88 154 11.0 17.0 0.00 0.01 0.01 53 1006.8
20260906184803 87 161 9.0 22.0 0.00 0.01 0.01 58 1007.3
20260906183803 86 144 16.0 25.0 0.00 0.01 0.01 60 1007.6
20260906182803 85 141 18.0 30.0 0.00 0.01 0.01 61 1007.8
20260906181803 84 139 16.0 27.0 0.00 0.01 0.01 63 1008.0
20260906180824 83 147 12.0 27.0 0.00 0.01 0.01 64 1008.1
20260906175803 82 146 14.0 25.0 0.00 0.01 0.01 66 1008.3
20260906174802 82 143 14.0 27.0 0.00 0.01 0.01 66 1008.4
20260906173803 82 156 11.0 25.0 0.00 0.01 0.01 64 1008.7
20260906172802 81 139 13.0 26.0 0.00 0.01 0.01 67 1008.9
20260906171803 81 143 15.0 23.0 0.00 0.01 0.01 67 1008.9
20260906170802 81 136 16.0 25.0 0.00 0.01 0.01 67 1009.1
20260906165803 81 133 8.0 17.0 0.00 0.01 0.01 70 1009.2
20260906164823 79 141 6.0 12.0 0.00 0.01 0.01 75 1009.3
20260906163803 77 153 6.0 15.0 0.00 0.01 0.01 75 1009.4
20260906162845 78 156 7.0 19.0 0.00 0.01 0.01 73 1009.1
20260906161803 79 151 12.0 18.0 0.00 0.01 0.01 69 1009.1
20260906160803 79 148 10.0 20.0 0.00 0.01 0.01 71 1008.8
20260906155802 78 154 11.0 20.0 0.00 0.01 0.01 72 1008.7
20260906154803 78 145 10.0 20.0 0.00 0.01 0.01 71 1008.9
20260906153803 79 153 11.0 17.0 0.00 0.01 0.01 70 1008.9
20260906152803 78 162 7.0 13.0 0.00 0.01 0.01 74 1009.2
20260906151802 76 173 5.0 13.0 0.00 0.01 0.01 80 1009.2
20260906150803 73 152 7.0 17.0 0.00 0.01 0.01 83 1009.2
20260906145804 73 129 11.0 18.0 0.00 0.01 0.01 82 1008.8
20260906144803 73 107 14.0 19.0 0.00 0.01 0.01 82 1009.0
20260906143802 72 120 7.0 15.0 0.00 0.01 0.01 83 1009.2
20260906142803 73 114 12.0 16.0 0.00 0.01 0.01 82 1009.5
20260906141823 73 117 8.0 16.0 0.00 0.01 0.01 81 1009.5
20260906140803 73 129 8.0 14.0 0.00 0.01 0.01 82 1009.3
20260906134803 72 100 11.0 15.0 0.00 0.01 0.01 85 1009.2
20260906133803 72 83 10.0 15.0 0.00 0.01 0.01 85 1009.3
20260906132802 72 91 12.0 17.0 0.00 0.01 0.01 85 1009.2
20260906131845 72 77 9.0 15.0 0.00 0.01 0.01 84 1009.1
20260906130803 72 71 7.0 12.0 0.00 0.01 0.01 84 1009.0
20260906125823 71 66 6.0 12.0 0.00 0.01 0.01 84 1008.6
20260906124803 71 61 7.0 11.0 0.00 0.01 0.01 85 1008.6
20260906123803 71 68 4.0 10.0 0.00 0.01 0.01 84 1008.5
20260906122824 71 45 6.0 10.0 0.00 0.01 0.01 85 1008.4
20260906121803 71 15 8.0 10.0 0.00 0.01 0.01 85 1008.3
20260906120803 71 12 7.0 9.0 0.00 0.01 0.01 84 1008.0
20260906115802 71 3 3.0 4.0 0.00 0.01 0.01 85 1007.7
20260906114803 71 45 3.0 5.0 0.00 0.01 0.01 85 1007.8
20260906113802 71 116 3.0 8.0 0.00 0.01 0.01 85 1007.7
20260906112803 71 124 5.0 8.0 0.00 0.01 0.01 85 1007.3
20260906111802 72 96 1.0 4.0 0.00 0.01 0.01 83 1006.8
20260906110803 72 283 1.0 4.0 0.00 0.01 0.01 82 1006.6
20260906105802 73 263 2.0 6.0 0.01 0.01 0.01 81 1006.4
20260906104803 71 239 4.0 7.0 0.01 0.01 0.01 83 1006.3
20260906103803 72 232 3.0 9.0 0.01 0.01 0.01 83 1006.2
20260906102803 72 218 8.0 14.0 0.01 0.01 0.01 81 1006.2
20260906100804 74 239 4.0 18.0 0.00 0.00 0.00 77 1006.2
20260906095804 73 211 15.0 21.0 0.00 0.00 0.00 76 1006.4
20260906094804 74 186 4.0 7.0 0.00 0.00 0.00 77 1006.6
20260906092846 75 171 2.0 9.0 0.00 0.00 0.00 74 1006.9
20260906091803 75 183 5.0 11.0 0.00 0.00 0.00 74 1006.9
20260906090825 75 197 8.0 12.0 0.00 0.00 0.00 75 1006.9
20260906085804 74 212 8.0 11.0 0.00 0.00 0.00 76 1006.8
20260906084804 74 229 5.0 9.0 0.00 0.00 0.00 77 1006.7
20260906082804 75 179 4.0 7.0 0.00 0.00 0.00 74 1006.5
20260906081803 75 186 3.0 6.0 0.00 0.00 0.00 74 1006.6
20260906080804 75 171 2.0 4.0 0.00 0.00 0.00 74 1006.7
20260906075804 75 186 2.0 6.0 0.00 0.00 0.00 73 1006.8
20260906074804 75 202 5.0 6.0 0.00 0.00 0.00 72 1007.0
20260906073803 76 162 1.0 5.0 0.00 0.00 0.00 71 1006.8
20260906072804 76 183 2.0 5.0 0.00 0.00 0.00 70 1006.9
20260906071803 76 185 2.0 6.0 0.00 0.00 0.00 70 1006.9
20260906070804 76 187 4.0 11.0 0.00 0.00 0.00 69 1006.7
20260906065803 76 201 9.0 13.0 0.00 0.00 0.00 70 1006.7
20260906064804 75 196 8.0 11.0 0.00 0.00 0.00 71 1006.8
20260906063804 75 181 5.0 8.0 0.00 0.00 0.00 72 1006.8
20260906062804 74 168 3.0 5.0 0.00 0.00 0.00 72 1007.0
20260906061805 74 171 3.0 5.0 0.00 0.00 0.00 73 1007.1
20260906060804 74 167 2.0 6.0 0.00 0.00 0.00 73 1006.8
20260906055804 74 160 3.0 6.0 0.00 0.00 0.00 74 1006.4
20260906054804 73 162 3.0 6.0 0.00 0.00 0.00 74 1006.6
20260906053804 73 163 3.0 6.0 0.00 0.00 0.00 73 1006.6
20260906052804 74 172 2.0 5.0 0.00 0.00 0.00 72 1006.4
20260906051803 74 173 2.0 4.0 0.00 0.00 0.00 71 1006.4
20260906050804 75 168 2.0 8.0 0.00 0.00 0.00 70 1006.3
20260906045804 76 176 3.0 10.0 0.00 0.00 0.00 69 1006.2
20260906044804 76 190 4.0 9.0 0.00 0.00 0.00 68 1006.1
20260906043803 76 224 5.0 8.0 0.00 0.00 0.00 67 1006.2
20260906042804 77 165 1.0 5.0 0.00 0.00 0.00 65 1006.0
20260906041803 78 160 3.0 6.0 0.00 0.00 0.00 63 1006.1
20260906040804 79 164 3.0 6.0 0.00 0.00 0.00 62 1006.2
20260906034804 80 181 3.0 8.0 0.00 0.00 0.00 62 1006.1
20260906033803 80 181 3.0 7.0 0.00 0.00 0.00 62 1006.1
20260906032804 80 177 4.0 9.0 0.00 0.00 0.00 61 1006.0
20260906031803 80 182 5.0 10.0 0.00 0.00 0.00 62 1006.1
20260906030825 80 182 3.0 7.0 0.00 0.00 0.00 62 1006.0
20260906025804 80 165 3.0 9.0 0.00 0.00 0.00 62 1006.0
20260906024803 80 172 3.0 9.0 0.00 0.00 0.00 63 1005.9
20260906023803 80 166 3.0 7.0 0.00 0.00 0.00 63 1005.8
20260906022804 80 149 5.0 9.0 0.00 0.00 0.00 62 1005.6
20260906021803 81 158 5.0 9.0 0.00 0.00 0.00 61 1005.3
20260906020804 81 159 5.0 11.0 0.00 0.00 0.00 61 1005.3
20260906015824 81 153 5.0 12.0 0.00 0.00 0.00 60 1005.2
20260906014804 82 153 6.0 12.0 0.00 0.00 0.00 60 1005.2
20260906013803 82 151 8.0 15.0 0.00 0.00 0.00 59 1004.9
20260906012804 83 155 7.0 18.0 0.00 0.00 0.00 58 1005.0
20260906011804 83 150 7.0 14.0 0.00 0.00 0.00 57 1004.7
20260906010825 83 154 8.0 18.0 0.00 0.00 0.00 56 1004.6
20260906005803 84 152 8.0 21.0 0.00 0.00 0.00 55 1004.7
20260906004804 84 147 12.0 23.0 0.00 0.00 0.00 54 1004.5
20260906003804 85 143 12.0 24.0 0.00 0.00 0.00 53 1004.6
20260906002804 86 144 13.0 24.0 0.00 0.00 0.00 52 1004.6
20260906001803 89 125 11.0 22.0 0.00 0.00 0.00 50 1004.6
20260906000804 90 142 11.0 21.0 0.00 0.00 0.00 47 1004.5
20260905235804 92 134 12.0 18.0 0.00 0.00 0.00 45 1004.3
20260905233803 94 180 7.0 11.0 0.00 0.00 0.00 40 1004.0
20260905232804 95 180 6.0 13.0 0.00 0.00 0.00 39 1003.9
20260905231824 95 172 6.0 17.0 0.00 0.00 0.00 38 1004.0
20260905230804 95 183 11.0 16.0 0.00 0.00 0.00 37 1003.8
20260905225803 95 174 5.0 18.0 0.00 0.00 0.00 38 1003.8
20260905224804 95 179 6.0 16.0 0.00 0.00 0.00 38 1003.7
20260905223824 96 171 5.0 14.0 0.00 0.00 0.00 38 1003.8
20260905222804 96 180 6.0 15.0 0.00 0.00 0.00 39 1003.7
20260905221804 96 182 7.0 18.0 0.00 0.00 0.00 38 1003.6
20260905220803 96 209 13.0 21.0 0.00 0.00 0.00 37 1003.7
20260905215804 96 169 5.0 11.0 0.00 0.00 0.00 40 1003.7
20260905214804 95 190 8.0 17.0 0.00 0.00 0.00 42 1003.7
20260905213804 95 171 5.0 17.0 0.00 0.00 0.00 41 1004.0
20260905212803 95 181 5.0 15.0 0.00 0.00 0.00 42 1004.1
20260905211804 95 187 10.0 18.0 0.00 0.00 0.00 42 1004.2
20260905210845 95 176 6.0 13.0 0.00 0.00 0.00 42 1004.4
20260905205804 94 203 11.0 17.0 0.00 0.00 0.00 42 1004.5
20260905204825 94 166 6.0 12.0 0.00 0.00 0.00 42 1004.6
20260905203824 94 184 7.0 20.0 0.00 0.00 0.00 44 1004.9
20260905202804 93 177 6.0 13.0 0.00 0.00 0.00 47 1005.0